| time (UTC) | temp F | wind direction | speed MPH | gust MPH | rain 1hr in | rain 24hr in | rain mn in | humidity % | barometer mb |
| 20260905081403 | 60 | 264 | 0.0 | 2.0 | 0.00 | 0.00 | 0.00 | 95 | 1009.2 |
| 20260905080404 | 60 | 265 | 0.0 | 0.0 | 0.00 | 0.00 | 0.00 | 94 | 1009.2 |
| 20260905075403 | 60 | 265 | 0.0 | 0.0 | 0.00 | 0.00 | 0.00 | 94 | 1009.2 |
| 20260905074404 | 60 | 265 | 0.0 | 0.0 | 0.00 | 0.00 | 0.00 | 95 | 1009.2 |
| 20260905073403 | 60 | 265 | 0.0 | 0.0 | 0.00 | 0.00 | 0.00 | 95 | 1009.2 |
| 20260905072404 | 60 | 265 | 0.0 | 2.0 | 0.00 | 0.00 | 0.00 | 95 | 1009.2 |
| 20260905071403 | 60 | 265 | 0.0 | 2.0 | 0.00 | 0.00 | 0.00 | 94 | 1009.3 |
| 20260905070404 | 60 | 264 | 0.0 | 1.0 | 0.00 | 0.00 | 0.00 | 94 | 1009.3 |
| 20260905065403 | 60 | 265 | 0.0 | 0.0 | 0.00 | 0.00 | 0.00 | 94 | 1009.3 |
| 20260905064404 | 60 | 265 | 0.0 | 0.0 | 0.00 | 0.01 | 0.00 | 94 | 1009.3 |
| 20260905063403 | 60 | 265 | 0.0 | 0.0 | 0.00 | 0.01 | 0.00 | 94 | 1009.4 |
| 20260905062404 | 60 | 265 | 0.0 | 0.0 | 0.00 | 0.01 | 0.00 | 95 | 1009.3 |
| 20260905061403 | 60 | 265 | 0.0 | 0.0 | 0.00 | 0.01 | 0.00 | 94 | 1009.4 |
| 20260905060404 | 60 | 264 | 1.0 | 4.0 | 0.00 | 0.01 | 0.00 | 94 | 1009.3 |
| 20260905055403 | 59 | 265 | 0.0 | 0.0 | 0.00 | 0.01 | 0.00 | 94 | 1009.3 |
| 20260905054404 | 59 | 265 | 0.0 | 3.0 | 0.00 | 0.01 | 0.00 | 94 | 1009.2 |
| 20260905053403 | 59 | 265 | 0.0 | 0.0 | 0.00 | 0.01 | 0.00 | 94 | 1009.3 |
| 20260905052404 | 59 | 265 | 0.0 | 3.0 | 0.00 | 0.01 | 0.00 | 93 | 1009.4 |
| 20260905051403 | 59 | 265 | 0.0 | 0.0 | 0.00 | 0.01 | 0.00 | 93 | 1009.3 |
| 20260905050403 | 59 | 265 | 0.0 | 0.0 | 0.00 | 0.01 | 0.00 | 93 | 1009.2 |
| 20260905045403 | 59 | 264 | 0.0 | 1.0 | 0.00 | 0.01 | 0.00 | 93 | 1009.3 |
| 20260905044404 | 60 | 265 | 0.0 | 2.0 | 0.00 | 0.01 | 0.00 | 93 | 1009.3 |
| 20260905043403 | 60 | 264 | 1.0 | 4.0 | 0.00 | 0.01 | 0.00 | 93 | 1009.3 |
| 20260905042404 | 60 | 264 | 0.0 | 3.0 | 0.00 | 0.02 | 0.00 | 93 | 1009.3 |
| 20260905041403 | 60 | 265 | 0.0 | 4.0 | 0.00 | 0.08 | 0.00 | 93 | 1009.4 |
| 20260905040403 | 60 | 264 | 0.0 | 1.0 | 0.00 | 0.08 | 0.00 | 93 | 1009.4 |
| 20260905035403 | 60 | 264 | 0.0 | 4.0 | 0.00 | 0.09 | 0.08 | 93 | 1009.3 |
| 20260905034403 | 60 | 263 | 2.0 | 6.0 | 0.00 | 0.09 | 0.08 | 93 | 1009.2 |
| 20260905033404 | 61 | 261 | 2.0 | 8.0 | 0.00 | 0.09 | 0.08 | 93 | 1009.3 |
| 20260905032403 | 61 | 251 | 0.0 | 4.0 | 0.00 | 0.09 | 0.08 | 93 | 1009.3 |
| 20260905031425 | 61 | 250 | 0.0 | 5.0 | 0.00 | 0.09 | 0.08 | 93 | 1009.4 |
| 20260905030403 | 60 | 247 | 0.0 | 3.0 | 0.00 | 0.09 | 0.08 | 92 | 1009.4 |
| 20260905024403 | 61 | 248 | 0.0 | 0.0 | 0.00 | 0.09 | 0.08 | 91 | 1009.4 |
| 20260905023403 | 61 | 248 | 0.0 | 2.0 | 0.00 | 0.09 | 0.08 | 91 | 1009.5 |
| 20260905022403 | 61 | 248 | 2.0 | 7.0 | 0.00 | 0.09 | 0.08 | 91 | 1009.5 |
| 20260905021404 | 61 | 246 | 0.0 | 4.0 | 0.00 | 0.09 | 0.08 | 91 | 1009.7 |
| 20260905020404 | 62 | 239 | 0.0 | 4.0 | 0.00 | 0.09 | 0.08 | 91 | 1009.8 |
| 20260905015403 | 62 | 239 | 1.0 | 5.0 | 0.00 | 0.09 | 0.08 | 91 | 1009.9 |
| 20260905013404 | 62 | 236 | 1.0 | 5.0 | 0.00 | 0.09 | 0.08 | 90 | 1009.8 |
| 20260905012403 | 63 | 235 | 0.0 | 3.0 | 0.00 | 0.09 | 0.08 | 90 | 1009.9 |
| 20260905011425 | 63 | 236 | 0.0 | 3.0 | 0.00 | 0.09 | 0.08 | 90 | 1009.8 |
| 20260905010403 | 63 | 236 | 0.0 | 1.0 | 0.00 | 0.09 | 0.08 | 90 | 1009.8 |
| 20260905005403 | 63 | 236 | 0.0 | 2.0 | 0.00 | 0.09 | 0.08 | 90 | 1009.7 |
| 20260905004403 | 63 | 235 | 0.0 | 2.0 | 0.00 | 0.09 | 0.08 | 90 | 1009.7 |
| 20260905003404 | 63 | 236 | 0.0 | 2.0 | 0.00 | 0.09 | 0.08 | 89 | 1009.6 |
| 20260905002403 | 63 | 235 | 0.0 | 2.0 | 0.00 | 0.09 | 0.08 | 89 | 1009.7 |
| 20260905001404 | 63 | 235 | 0.0 | 2.0 | 0.00 | 0.09 | 0.08 | 89 | 1009.5 |
| 20260905000403 | 63 | 236 | 0.0 | 3.0 | 0.00 | 0.09 | 0.08 | 89 | 1009.4 |
| 20260904235404 | 64 | 232 | 1.0 | 7.0 | 0.00 | 0.09 | 0.08 | 88 | 1009.2 |
| 20260904234424 | 64 | 279 | 0.0 | 4.0 | 0.00 | 0.09 | 0.08 | 88 | 1009.1 |
| 20260904233403 | 64 | 279 | 0.0 | 0.0 | 0.00 | 0.09 | 0.08 | 87 | 1009.2 |
| 20260904232403 | 65 | 279 | 0.0 | 0.0 | 0.00 | 0.09 | 0.08 | 86 | 1009.3 |
| 20260904231403 | 66 | 279 | 0.0 | 0.0 | 0.00 | 0.09 | 0.08 | 86 | 1009.5 |
| 20260904230404 | 66 | 279 | 0.0 | 0.0 | 0.00 | 0.09 | 0.08 | 85 | 1009.5 |
| 20260904225403 | 67 | 279 | 0.0 | 1.0 | 0.00 | 0.09 | 0.08 | 85 | 1009.6 |
| 20260904224403 | 67 | 279 | 0.0 | 0.0 | 0.00 | 0.09 | 0.08 | 85 | 1009.3 |
| 20260904223403 | 67 | 278 | 0.0 | 2.0 | 0.00 | 0.09 | 0.08 | 84 | 1009.2 |
| 20260904222403 | 67 | 278 | 0.0 | 7.0 | 0.00 | 0.09 | 0.08 | 84 | 1009.3 |
| 20260904221403 | 68 | 272 | 1.0 | 8.0 | 0.00 | 0.09 | 0.08 | 84 | 1009.4 |
| 20260904220403 | 68 | 281 | 1.0 | 7.0 | 0.00 | 0.09 | 0.08 | 84 | 1009.4 |
| 20260904215403 | 68 | 252 | 0.0 | 7.0 | 0.00 | 0.09 | 0.08 | 84 | 1009.4 |
| 20260904214403 | 68 | 229 | 1.0 | 10.0 | 0.00 | 0.09 | 0.08 | 82 | 1009.3 |
| 20260904213403 | 68 | 273 | 4.0 | 9.0 | 0.00 | 0.09 | 0.08 | 82 | 1009.2 |
| 20260904212403 | 68 | 275 | 1.0 | 7.0 | 0.00 | 0.09 | 0.08 | 83 | 1009.2 |
| 20260904211403 | 69 | 243 | 1.0 | 7.0 | 0.00 | 0.09 | 0.08 | 82 | 1009.2 |
| 20260904210403 | 70 | 268 | 1.0 | 8.0 | 0.00 | 0.09 | 0.08 | 80 | 1009.1 |
| 20260904205403 | 71 | 231 | 0.0 | 0.0 | 0.00 | 0.09 | 0.08 | 78 | 1009.1 |
| 20260904204403 | 72 | 281 | 0.0 | 0.0 | 0.00 | 0.09 | 0.08 | 77 | 1009.3 |
| 20260904203403 | 72 | 257 | 0.0 | 0.0 | 0.00 | 0.09 | 0.08 | 76 | 1009.1 |
| 20260904202403 | 73 | 276 | 0.0 | 0.0 | 0.00 | 0.09 | 0.08 | 72 | 1009.1 |
| 20260904201424 | 75 | 309 | 0.0 | 0.0 | 0.00 | 0.09 | 0.08 | 74 | 1009.0 |
| 20260904200403 | 75 | 269 | 0.0 | 0.0 | 0.00 | 0.09 | 0.08 | 76 | 1009.1 |
| 20260904195402 | 76 | 262 | 0.0 | 0.0 | 0.00 | 0.09 | 0.08 | 75 | 1009.1 |
| 20260904194403 | 75 | 259 | 0.0 | 0.0 | 0.00 | 0.09 | 0.08 | 76 | 1009.2 |
| 20260904193424 | 74 | 266 | 0.0 | 0.0 | 0.00 | 0.09 | 0.08 | 78 | 1009.2 |
| 20260904192403 | 73 | 261 | 0.0 | 0.0 | 0.00 | 0.09 | 0.08 | 80 | 1009.2 |
| 20260904191403 | 72 | 250 | 0.0 | 0.0 | 0.00 | 0.09 | 0.08 | 79 | 1009.2 |
| 20260904190403 | 73 | 257 | 0.0 | 0.0 | 0.00 | 0.09 | 0.08 | 80 | 1009.2 |
| 20260904185403 | 73 | 238 | 0.0 | 0.0 | 0.00 | 0.09 | 0.08 | 80 | 1009.4 |
| 20260904184403 | 73 | 251 | 0.0 | 0.0 | 0.00 | 0.09 | 0.08 | 78 | 1009.5 |
| 20260904183424 | 73 | 248 | 0.0 | 0.0 | 0.00 | 0.09 | 0.08 | 78 | 1009.5 |
| 20260904182403 | 73 | 264 | 0.0 | 0.0 | 0.00 | 0.09 | 0.08 | 78 | 1009.4 |
| 20260904181403 | 73 | 250 | 0.0 | 0.0 | 0.00 | 0.09 | 0.08 | 80 | 1009.4 |
| 20260904180403 | 72 | 272 | 0.0 | 0.0 | 0.00 | 0.09 | 0.08 | 82 | 1009.6 |
| 20260904175403 | 71 | 263 | 0.0 | 0.0 | 0.00 | 0.09 | 0.08 | 80 | 1009.6 |
| 20260904174423 | 72 | 194 | 0.0 | 0.0 | 0.00 | 0.09 | 0.08 | 79 | 1009.7 |
| 20260904173403 | 72 | 222 | 0.0 | 0.0 | 0.00 | 0.09 | 0.08 | 82 | 1009.5 |
| 20260904172403 | 72 | 216 | 0.0 | 0.0 | 0.00 | 0.09 | 0.08 | 81 | 1009.5 |
| 20260904171403 | 72 | 265 | 0.0 | 0.0 | 0.00 | 0.09 | 0.08 | 80 | 1009.5 |
| 20260904170403 | 71 | 267 | 0.0 | 0.0 | 0.00 | 0.09 | 0.08 | 81 | 1009.5 |
| 20260904165402 | 71 | 267 | 0.0 | 0.0 | 0.00 | 0.09 | 0.08 | 82 | 1009.6 |
| 20260904164403 | 71 | 267 | 0.0 | 0.0 | 0.00 | 0.09 | 0.08 | 78 | 1009.6 |
| 20260904163402 | 72 | 267 | 0.0 | 0.0 | 0.00 | 0.09 | 0.08 | 79 | 1009.8 |
| 20260904162424 | 73 | 248 | 0.0 | 0.0 | 0.00 | 0.09 | 0.08 | 80 | 1009.6 |
| 20260904161403 | 74 | 259 | 0.0 | 0.0 | 0.00 | 0.09 | 0.08 | 78 | 1009.7 |
| 20260904160403 | 73 | 269 | 0.0 | 0.0 | 0.00 | 0.09 | 0.08 | 77 | 1009.8 |
| 20260904155424 | 73 | 257 | 0.0 | 0.0 | 0.00 | 0.09 | 0.08 | 80 | 1009.9 |
| 20260904154402 | 73 | 240 | 0.0 | 0.0 | 0.00 | 0.09 | 0.08 | 80 | 1010.0 |
| 20260904153403 | 72 | 253 | 0.0 | 0.0 | 0.00 | 0.09 | 0.08 | 82 | 1010.1 |
| 20260904152402 | 72 | 296 | 0.0 | 0.0 | 0.00 | 0.09 | 0.08 | 81 | 1010.2 |
| 20260904151403 | 72 | 262 | 0.0 | 0.0 | 0.00 | 0.09 | 0.08 | 82 | 1010.2 |
| 20260904150402 | 71 | 288 | 0.0 | 0.0 | 0.00 | 0.09 | 0.08 | 83 | 1010.0 |
| 20260904145403 | 71 | 258 | 0.0 | 0.0 | 0.00 | 0.09 | 0.08 | 82 | 1010.0 |
| 20260904144402 | 70 | 228 | 0.0 | 0.0 | 0.00 | 0.09 | 0.08 | 86 | 1009.9 |
| 20260904143403 | 69 | 246 | 0.0 | 0.0 | 0.00 | 0.09 | 0.08 | 86 | 1009.9 |
| 20260904142402 | 69 | 264 | 0.0 | 0.0 | 0.00 | 0.09 | 0.08 | 87 | 1009.9 |
| 20260904141403 | 68 | 267 | 0.0 | 0.0 | 0.00 | 0.09 | 0.08 | 89 | 1010.0 |
| 20260904140402 | 67 | 265 | 0.0 | 0.0 | 0.00 | 0.09 | 0.08 | 90 | 1010.0 |
| 20260904135403 | 67 | 242 | 0.0 | 0.0 | 0.00 | 0.09 | 0.08 | 93 | 1010.0 |
| 20260904134402 | 66 | 243 | 0.0 | 6.0 | 0.00 | 0.09 | 0.08 | 94 | 1009.9 |
| 20260904133403 | 66 | 236 | 2.0 | 5.0 | 0.00 | 0.09 | 0.08 | 95 | 1009.9 |
| 20260904132402 | 65 | 254 | 2.0 | 7.0 | 0.00 | 0.09 | 0.08 | 96 | 1010.0 |
| 20260904131403 | 65 | 254 | 3.0 | 8.0 | 0.00 | 0.09 | 0.08 | 96 | 1010.0 |
| 20260904130402 | 65 | 288 | 1.0 | 7.0 | 0.00 | 0.09 | 0.08 | 96 | 1010.0 |
| 20260904125403 | 64 | 235 | 1.0 | 4.0 | 0.00 | 0.09 | 0.08 | 96 | 1010.0 |
| 20260904124424 | 64 | 234 | 0.0 | 3.0 | 0.00 | 0.09 | 0.08 | 96 | 1010.0 |
| 20260904123403 | 63 | 234 | 1.0 | 3.0 | 0.00 | 0.09 | 0.08 | 96 | 1010.0 |
| 20260904122403 | 63 | 234 | 1.0 | 3.0 | 0.00 | 0.09 | 0.08 | 96 | 1010.1 |
| 20260904120403 | 64 | 232 | 0.0 | 2.0 | 0.00 | 0.09 | 0.08 | 96 | 1010.1 |
| 20260904115403 | 63 | 233 | 0.0 | 0.0 | 0.00 | 0.09 | 0.08 | 97 | 1010.1 |
| 20260904114403 | 62 | 233 | 0.0 | 0.0 | 0.00 | 0.09 | 0.08 | 96 | 1010.0 |
| 20260904113403 | 61 | 233 | 0.0 | 0.0 | 0.00 | 0.09 | 0.08 | 96 | 1009.9 |
| 20260904112403 | 60 | 233 | 0.0 | 0.0 | 0.00 | 0.09 | 0.08 | 96 | 1009.7 |
| 20260904111403 | 60 | 233 | 0.0 | 0.0 | 0.00 | 0.09 | 0.08 | 95 | 1009.6 |
| 20260904110403 | 59 | 233 | 0.0 | 0.0 | 0.00 | 0.09 | 0.08 | 95 | 1009.5 |
| 20260904105424 | 59 | 233 | 0.0 | 0.0 | 0.00 | 0.09 | 0.08 | 95 | 1009.4 |
| 20260904104404 | 59 | 233 | 0.0 | 0.0 | 0.00 | 0.09 | 0.08 | 95 | 1009.4 |
| 20260904103424 | 60 | 233 | 0.0 | 0.0 | 0.00 | 0.09 | 0.08 | 95 | 1009.3 |
| 20260904102403 | 60 | 233 | 0.0 | 0.0 | 0.00 | 0.09 | 0.08 | 95 | 1009.3 |
| 20260904101403 | 60 | 233 | 0.0 | 0.0 | 0.00 | 0.09 | 0.08 | 95 | 1009.2 |
| 20260904100424 | 60 | 233 | 0.0 | 0.0 | 0.00 | 0.09 | 0.08 | 95 | 1009.0 |
| 20260904095403 | 60 | 232 | 0.0 | 1.0 | 0.00 | 0.09 | 0.08 | 95 | 1008.9 |
| 20260904094403 | 60 | 233 | 0.0 | 0.0 | 0.00 | 0.09 | 0.08 | 95 | 1008.9 |
| 20260904093403 | 60 | 233 | 0.0 | 0.0 | 0.00 | 0.09 | 0.08 | 95 | 1008.8 |
| 20260904092404 | 60 | 233 | 0.0 | 0.0 | 0.00 | 0.09 | 0.08 | 95 | 1008.9 |
| 20260904091403 | 60 | 233 | 0.0 | 0.0 | 0.00 | 0.09 | 0.08 | 95 | 1008.8 |
| 20260904085403 | 61 | 233 | 0.0 | 0.0 | 0.00 | 0.09 | 0.08 | 94 | 1008.7 |
| 20260904084403 | 61 | 233 | 0.0 | 0.0 | 0.00 | 0.09 | 0.08 | 95 | 1008.7 |
| 20260904083403 | 61 | 232 | 0.0 | 1.0 | 0.00 | 0.09 | 0.08 | 95 | 1008.8 |
| 20260904082403 | 61 | 233 | 0.0 | 0.0 | 0.00 | 0.09 | 0.08 | 95 | 1008.8 |